Regional Weather Roundup
Issued by NWS Wakefield, VA

Current Version | Previous Version | Text Only | Print | Product List | Glossary On
Versions: 1 2 3 4 5 6 7 8 9 10 11 12 13 14 15 16 17 18 19 20 21 22 23 24 25 26
000
ASUS41 KAKQ 270015
RWRAKQ

REGIONAL WEATHER ROUNDUP
NATIONAL WEATHER SERVICE WAKEFIELD VA
800 PM EDT THU MAY 26 2016

Note: "fair" indicates few or no clouds below 12,000 feet with no
significant weather and/or obstructions to visibility. * = Denotes
station may not report precipitation (e.g., rain,snow,etc.),
thunder or fog.

VAZ042-051-052>054-056-270100-
NORTHERN VIRGINIA

CITY           SKY/WX    TMP DP  RH WIND       PRES   REMARKS
WASH NATIONAL  MOCLDY    80  65  59 S8        30.01S
DULLES         MOCLDY    81  64  56 S6        30.02R
FORT BELVOIR   FAIR      83  65  55 CALM      30.01S
QUANTICO       MOCLDY    77  68  73 S7        30.02S
FREDERICKSBRG* NOT AVBL
STAFFORD*      FAIR      82  62  50 CALM      30.06S
WARRENTON      FAIR      82  60  48 SE3       30.02S
CULPEPER*      FAIR      82  67  59 CALM      30.03R
MANASSAS*      CLEAR     81  68  65 CALM      30.02R
LEESBURG*      MOCLDY    86  68  54 S5        30.03R
WINCHESTER     CLOUDY    77  64  65 NW8       30.04R
FRONT ROYAL*   CLOUDY    79  63  57 CALM      30.02R
LURAY*         FAIR      81  63  54 SW7       30.04R
$$

VAZ048-049-060>072-079>083-270100-
CENTRAL AND SOUTH CENTRAL VIRGINIA

CITY           SKY/WX    TMP DP  RH WIND       PRES   REMARKS
RICHMOND       FAIR      79  63  57 S7        30.04R
CHESTERFIELD*  FAIR      82  57  42 SW3       30.06R
PETERSBURG*    FAIR      80  65  60 CALM      30.06R
HANOVER        FAIR      83  59  44 S6        30.05R
TAPPAHANNOCK*  FAIR      82  61  49 CALM      30.05R
QUINTON*       FAIR      84  64  50 SE3       30.04R
CHARLOTTSVILLE CLOUDY    82  61  48 SW8       30.04R
GORDONSVILLE*  FAIR      79  66  64 S5        30.03R
ORANGE*        FAIR      81  64  57 NE3       30.05R
LOUISA*        FAIR      84  68  58 CALM      30.03S
BUMPASS*       FAIR      81  65  58 CALM      30.04R
FARMVILLE*     NOT AVBL
CREWE*         FAIR      81  68  63 CALM      30.05S
FORT PICKETT*  NOT AVBL
CHASE CITY*    FAIR      82  64  53 CALM      30.07S
CLARKSVILLE*   FAIR      79  68  69 CALM      30.06S
SOUTH HILL*    FAIR      79  67  67 CALM      30.12S
LAWRENCEVILLE* FAIR      79  66  64 CALM      30.06R
EMPORIA*       FAIR      81  68  65 CALM      30.07S
$$

VAZ088>098-270100-
SOUTHEAST VIRGINIA

CITY           SKY/WX    TMP DP  RH WIND       PRES   REMARKS
NORFOLK        MOCLDY    83  61  47 S12       30.06R
VIRGINIA BEACH FAIR      83  64  52 S10       30.06S
NORFOLK NAVAL  FAIR      83  59  44 SW7       30.07R
WEST POINT*    FAIR      81  61  49 CALM      30.06R
SALUDA*        FAIR      79  65  61 S7        30.05R
NEWPORT NEWS   FAIR      81  63  54 S7        30.05S
LANGLEY AFB    FAIR      82  65  55 SE6       30.05S
FORT EUSTIS    FAIR      82  69  64 S3        30.04R
WILLIAMSBURG*  FAIR      82  64  54 CALM      30.06R
HR EXEC AP*    FAIR      82  61  47 S6        30.08R
FRANKLIN*      FAIR      80  62  52 S3        30.06S
US460-WAKEFLD  FAIR      79  64  60 CALM      30.05S
$$

VAZ020-022-025-037-045-270100-
WEST CENTRAL AND SOUTHWEST VIRGINIA

CITY           SKY/WX    TMP DP  RH WIND       PRES   REMARKS
STAUNTON*      FAIR      73  63  69 CALM      30.08F
WAYNESBORO*    FAIR      76  61  59 SW3       30.08F
HOT SPRINGS VA FAIR      67  59  75 W9        30.18S
LYNCHBURG      FAIR      73  65  75 CALM      30.08F
DANVILLE       FAIR      77  66  68 S3        30.06F
SOUTH BOSTON*  FAIR      80  67  63 CALM      30.06S
MARTINSVILLE   FAIR      70  65  85 CALM      30.10F
ROANOKE        FAIR      76  66  71 E5        30.10S
BLACKSBURG     FAIR      72  63  72 S6        30.17R
DUBLIN*        MOCLDY    75  63  66 SW6       30.16R
MARION*        CLOUDY    72  62  69 SW5       30.19S
HILLSVILLE*    CLOUDY    71  63  75 CALM      30.17R
RICHLANDS*     FAIR      71  56  58 SW5       30.18S
WISE*          FAIR      72  55  56 SW3       30.19R
ABINGDON*      FAIR      73  64  72 W3        30.16S
$$

MDZ021>025-VAZ099-100-270100-
SOUTHERN MARYLAND AND THE DELMARVA PENINSULA

CITY           SKY/WX    TMP DP  RH WIND       PRES   REMARKS
PATUXENT RIVER PTCLDY    80  64  58 S6        30.03R
BAY BRIDGE APT CLEAR     81  66  61 S9        30.02S
LEONARDTOWN    CLEAR     79  63  57 SE3       30.05R
DOVER          CLEAR     73  71  92 E5        30.03R
GEORGETOWN     CLEAR     81  62  52 S12       30.06R
EASTON         CLEAR     82  68  61 S8        30.08R
CAMBRIDGE      CLEAR     79  61  53 S6        30.04R
SALISBURY      CLEAR     78  64  61 S7        30.06R
OCEAN CITY     CLEAR     73  65  75 SW9       30.08R
WALLOPS ISLAND FAIR      71  63  75 S15       30.08S
ACCOMACK*      FAIR      75  63  64 S13       30.07S
$$

NCZ012>017-030>032-270100-
NORTH CENTRAL AND EASTERN NORTH CAROLINA

CITY           SKY/WX    TMP DP  RH WIND       PRES   REMARKS
ROANOKE RAPIDS FAIR      79  64  61 CALM      30.06S
RALEIGH        PTCLDY    82  61  48 SW9       30.07S
ELIZABETH CITY CLEAR     78  63  59 S13       30.09S
AHOSKIE*       CLEAR     79  63  56 CALM      30.07R
EDENTON*       CLEAR     80  64  57 S12G20    30.10R
CURRITUCK*     CLEAR     80  63  55 S7        30.10R
KILL DEVIL HLS CLEAR     76  65  68 S8        30.11S
MANTEO         NOT AVBL
CAPE HATTERAS  CLEAR     73  67  81 S7        30.15S
TARBORO*       FAIR      83  63  50 S5        30.08R
GOLDSBORO      PTCLDY    83  63  49 S6        30.07R
WASHINGTON     CLEAR     78  64  61 S10       30.09R
GREENVILLE     MOCLDY    81  66  61 S15G21    30.10R
NEW BERN       CLEAR     76  62  62 S9        30.13R
WILMINGTON     CLEAR     75  63  66 S9        30.12S
$$

VAZ048-270100-
ELSEWHERE

CITY           SKY/WX    TMP DP  RH WIND       PRES   REMARKS
HARRISBURG PA  MOCLDY    78  64  61 SW5       30.00S
BALTIMORE      MOCLDY    81  64  56 SE7       30.01R
ANNAPOLIS      CLEAR     76  65  68 S8        30.02R
ANDREWS AFB    FAIR      80  63  54 S7        30.02R
PHILADELPHIA   PTCLDY    83  52  34 S9        30.03R
HENDERSON NC   CLEAR     78  63  58 S3        30.08R
GREENSBORO     PTCLDY    81  60  48 S6        30.07F
ROCKY MOUNT    CLOUDY    82  63  52 S5        30.07R
$$

VAZ100-270100-
MARINE

STATION/POSITION TIME  TEMP    WIND        PRES    WAVE   SWELL
                       AIR SEA DIR/SP/G            HT/PER HT/PER
                 (UTC) (F)     (DEG/KT/KT) (MB)    (FT/S) (FT/S)
BRANDYWINE LGT   2300          160/ 13/ 14 1017.2F
CAPE MAY NJ      2300          140/ 11/ 17 1017.2F
LEWES DE         2300          170/  8/ 10 1017.1R
15NM E FENWICK I 2350   64 59              1018.2S   2/ 7
OCEAN-CITY-INLET 2300          220/ 14/ 16 1018.7R
WACHAPREAGUE VA  2300          200/ 17/ 20 1017.7F
THOMAS POINT MD  0000   72 66  180/  8/  9 1018.0R
GOOSES REEF MD   0000   71 66  160/ 12/ 14 1017.9R   2/ 3
COVE POINT MD    2300          190/ 13/ 14 1017.3S
SOLOMONS ISLAND  2300          120/  7/  9   N/A
BISHOPS HEAD MD  2300          150/ 11/ 12 1017.2F
PINEY POINT MD   2300          200/  8/  8   N/A
POTOMAC MD       0000   75 70  190/ 10/ 12 1016.5R   1/ 2
CAMBRIDGE MD     2300          170/  6/ 10 1016.1S
LEWISETTA VA     2300          200/  7/  8 1016.4F
RAPPAHANNOCK LGT 2300          140/ 14/ 15 1018.3F
STINGRAY PT      0000   72 68  180/ 12/ 14 1018.3R   1/ 3
YORK RVR RNG VA  2300          150/ 13/ 14 1016.8F
YORKTOWN VA      2300          170/  5/  5 1017.0F
JAMESTOWN VA     0000   80 72  130/  2/  4   N/A     0
DOMINION TERM VA 2300          200/  7/  7 1017.7F
KIPTOPEKE VA     2300          160/ 17/ 19   N/A
CHES BAY BRIDGE  2300          120/  6/  8 1017.8F
CAPE HENRY VA    2300          160/  6/ 10   N/A
CHESAPEAKE LGHT  2300   70     170/ 25/ 25 1018.3F
WILLOUBY STN VA  2300          120/  7/  9 1018.8F
CAPE HENRY BUOY  2312      65                N/A     3/ 4
1ST LANDING BUOY 0000   77 69  160/ 10/ 12 1018.0R   1/ 4
CAPE CHARLES BUO 2326      64                N/A     2/ 4   2/ 8
OFFSHORE WE BUOY 2321      61                N/A     3/ 4   2/ 8
64NM E OF VA BCH 2350   65 59  180/ 12/ 14 1019.5F   2/ 8   2/ 8
DUCK PIER NC     2300          180/ 17/ 22 1018.4F
44100 DUCK FRF   2324      66                N/A     3/ 3
44056 DUCK FRF   2311      68                N/A     2/ 8
OREGON INLET NC  2300          190/ 17/ 20 1020.3F
HATTERAS NC      2300          190/  5/  8 1020.4F
DIAMOND SHLS NC  2250   76 73  210/  6/  8 1021.2    2/ 8   2/ 8
CAPE C1F1C2F2C3F3C4F4C5F5C6F6C7F7C8M1C9!



USA.gov is the U.S. government's official web portal to all federal, state and local government web resources and services.